OCN4AP EDDM-LGMK

Flight info

Callsign OCN4AP
Flight time 2h 8m
Altitude 35000
Route ROTAX4E/08R ROTAX L603 LATLO DCT OBEDI DCT KFT DCT MAGAM DCT TIVNU DCT KEB DCT MEDUX UM867 KOGAT DCT ERANA DCT TSL UL617 SKP UN137 AGAPU
Aircraft A320/M-SDE3FGHIRWY/LB1

Departure

Time 2026-05-01 13:25
Airport Munich Airport (EDDM)

Arrival

Time 2026-05-01 15:33
Airport Mykonos Island National Airport (LGMK)
Time Latitude Longitude Altitude Speed Heading
2026-05-01 12:36 48.35087 11.81041 1473 ft 0 kts 173°
2026-05-01 13:11 48.35111 11.81037 1472 ft 4 kts 173°
2026-05-01 13:11 48.35138 11.81032 1474 ft 4 kts 173°
2026-05-01 13:12 48.35159 11.81029 1472 ft 4 kts 190°
2026-05-01 13:12 48.35179 11.81046 1482 ft 4 kts 248°
2026-05-01 13:12 48.35184 11.81082 1482 ft 3 kts 263°
2026-05-01 13:12 48.35184 11.81087 1480 ft 0 kts 263°
2026-05-01 13:14 48.35180 11.81024 1475 ft 13 kts 264°
2026-05-01 13:14 48.35170 11.80893 1477 ft 12 kts 263°
2026-05-01 13:15 48.35160 11.80779 1481 ft 10 kts 262°
2026-05-01 13:15 48.35153 11.80684 1482 ft 8 kts 264°
2026-05-01 13:15 48.35147 11.80599 1485 ft 11 kts 264°
2026-05-01 13:15 48.35135 11.80446 1482 ft 15 kts 263°
2026-05-01 13:16 48.35119 11.80301 1485 ft 13 kts 257°
2026-05-01 13:16 48.35108 11.80175 1485 ft 11 kts 264°
2026-05-01 13:16 48.35096 11.80029 1479 ft 18 kts 263°
2026-05-01 13:17 48.35059 11.79564 1481 ft 12 kts 249°
2026-05-01 13:17 48.34991 11.79534 1478 ft 10 kts 173°
2026-05-01 13:18 48.34899 11.79550 1475 ft 6 kts 173°
2026-05-01 13:18 48.34848 11.79558 1474 ft 11 kts 173°
2026-05-01 13:18 48.34788 11.79500 1482 ft 12 kts 255°
2026-05-01 13:18 48.34771 11.79299 1485 ft 26 kts 263°
2026-05-01 13:19 48.34749 11.79006 1485 ft 27 kts 263°
2026-05-01 13:19 48.34728 11.78737 1485 ft 25 kts 263°
2026-05-01 13:19 48.34692 11.78271 1478 ft 20 kts 263°
2026-05-01 13:20 48.34677 11.78072 1485 ft 18 kts 264°
2026-05-01 13:20 48.34658 11.77834 1485 ft 30 kts 263°
2026-05-01 13:20 48.34632 11.77503 1485 ft 32 kts 263°
2026-05-01 13:21 48.34583 11.76851 1483 ft 32 kts 263°
2026-05-01 13:21 48.34557 11.76519 1485 ft 32 kts 263°
2026-05-01 13:21 48.34531 11.76188 1485 ft 30 kts 263°
2026-05-01 13:21 48.34508 11.75883 1471 ft 29 kts 263°
2026-05-01 13:22 48.34485 11.75586 1477 ft 28 kts 263°
2026-05-01 13:22 48.34465 11.75324 1485 ft 16 kts 263°
2026-05-01 13:22 48.34426 11.75218 1485 ft 11 kts 193°
2026-05-01 13:22 48.34354 11.75227 1479 ft 11 kts 173°
2026-05-01 13:23 48.34247 11.75246 1475 ft 18 kts 173°
2026-05-01 13:23 48.34125 11.75267 1482 ft 15 kts 174°
2026-05-01 13:23 48.34081 11.75291 1476 ft 3 kts 99°
2026-05-01 13:23 48.34082 11.75303 1485 ft 0 kts 83°
2026-05-01 13:24 48.34099 11.75517 1485 ft 55 kts 83°
2026-05-01 13:24 48.34169 11.76409 1485 ft 115 kts 83°
2026-05-01 13:24 48.34280 11.77849 1479 ft 160 kts 83°
2026-05-01 13:25 48.34524 11.81255 2781 ft 168 kts 84°
2026-05-01 13:25 48.34666 11.83221 3160 ft 190 kts 84°
2026-05-01 13:25 48.34815 11.85198 3468 ft 210 kts 83°
2026-05-01 13:25 48.34994 11.87471 4042 ft 224 kts 84°
2026-05-01 13:26 48.35179 11.89813 4927 ft 228 kts 84°
2026-05-01 13:26 48.35354 11.92208 5687 ft 233 kts 89°
2026-05-01 13:26 48.35056 11.94631 6259 ft 246 kts 112°
2026-05-01 13:26 48.34367 11.97066 6863 ft 258 kts 113°
2026-05-01 13:27 48.33631 11.99543 7649 ft 261 kts 113°
2026-05-01 13:27 48.32876 12.02052 8390 ft 267 kts 113°
2026-05-01 13:27 48.31323 12.07217 9901 ft 277 kts 114°
2026-05-01 13:28 48.28667 12.11552 11031 ft 305 kts 147°
2026-05-01 13:28 48.26665 12.12973 11198 ft 331 kts 153°
2026-05-01 13:29 48.22270 12.15848 12143 ft 352 kts 153°
2026-05-01 13:29 48.17681 12.18848 13453 ft 361 kts 153°
2026-05-01 13:30 48.08949 12.26483 15855 ft 369 kts 140°
2026-05-01 13:31 48.04733 12.30986 17014 ft 375 kts 141°
2026-05-01 13:31 47.98277 12.37851 18699 ft 384 kts 139°
2026-05-01 13:32 47.94311 12.43210 19450 ft 388 kts 133°
2026-05-01 13:33 47.88346 12.51529 20849 ft 396 kts 133°
2026-05-01 13:33 47.84296 12.57167 21730 ft 402 kts 133°
2026-05-01 13:34 47.80206 12.62913 22605 ft 407 kts 131°
2026-05-01 13:34 47.76162 12.68956 23476 ft 412 kts 130°
2026-05-01 13:35 47.72142 12.75070 24287 ft 418 kts 130°
2026-05-01 13:35 47.70080 12.78176 24636 ft 421 kts 130°
2026-05-01 13:35 47.65918 12.84366 25332 ft 426 kts 131°
2026-05-01 13:36 47.63814 12.87478 25672 ft 428 kts 131°
2026-05-01 13:36 47.61700 12.90597 25993 ft 430 kts 131°
2026-05-01 13:36 47.57436 12.96873 26590 ft 435 kts 131°
2026-05-01 13:37 47.55286 13.00037 26887 ft 437 kts 131°
2026-05-01 13:37 47.53124 13.03217 27205 ft 440 kts 131°
2026-05-01 13:37 47.50920 13.06463 27534 ft 442 kts 130°
2026-05-01 13:37 47.48731 13.09683 27781 ft 445 kts 130°
2026-05-01 13:38 47.44312 13.16164 28396 ft 450 kts 130°
2026-05-01 13:38 47.42084 13.19422 28693 ft 452 kts 131°
2026-05-01 13:38 47.39844 13.22690 28973 ft 454 kts 131°
2026-05-01 13:39 47.37624 13.25929 29247 ft 456 kts 131°
2026-05-01 13:39 47.35367 13.29222 29501 ft 458 kts 131°
2026-05-01 13:39 47.33075 13.32581 29762 ft 459 kts 129°
2026-05-01 13:39 47.31017 13.36080 30002 ft 458 kts 125°
2026-05-01 13:40 47.28937 13.39731 30296 ft 461 kts 125°
2026-05-01 13:40 47.26869 13.43348 30526 ft 463 kts 125°
2026-05-01 13:40 47.24791 13.46970 30797 ft 462 kts 125°
2026-05-01 13:40 47.22719 13.50572 31158 ft 461 kts 125°
2026-05-01 13:41 47.20648 13.54169 31498 ft 459 kts 125°
2026-05-01 13:41 47.18587 13.57745 31837 ft 458 kts 125°
2026-05-01 13:41 47.16528 13.61311 32184 ft 457 kts 125°
2026-05-01 13:41 47.14473 13.64866 32535 ft 456 kts 125°
2026-05-01 13:42 47.12423 13.68412 32890 ft 455 kts 125°
2026-05-01 13:42 47.10378 13.71949 33251 ft 453 kts 124°
2026-05-01 13:42 47.08339 13.75469 33593 ft 452 kts 124°
2026-05-01 13:42 47.06310 13.78976 33971 ft 450 kts 124°
2026-05-01 13:43 47.04287 13.82468 34303 ft 449 kts 124°
2026-05-01 13:43 47.02265 13.85952 34570 ft 449 kts 124°
2026-05-01 13:43 47.00241 13.89432 34826 ft 448 kts 124°
2026-05-01 13:43 46.98218 13.92906 35079 ft 448 kts 124°
2026-05-01 13:44 46.96193 13.96372 35276 ft 448 kts 125°
2026-05-01 13:44 46.92137 14.03288 35377 ft 447 kts 124°
2026-05-01 13:45 46.88091 14.10183 35353 ft 446 kts 124°
2026-05-01 13:45 46.84049 14.17064 35356 ft 446 kts 124°
2026-05-01 13:46 46.79997 14.23932 35358 ft 446 kts 124°
2026-05-01 13:46 46.75944 14.30796 35357 ft 447 kts 124°
2026-05-01 13:47 46.71884 14.37646 35380 ft 446 kts 124°
2026-05-01 13:47 46.67799 14.44459 35372 ft 447 kts 126°
2026-05-01 13:48 46.63580 14.51129 35373 ft 448 kts 126°
2026-05-01 13:48 46.59286 14.57778 35363 ft 448 kts 127°
2026-05-01 13:49 46.55747 14.63272 35357 ft 448 kts 126°
2026-05-01 13:49 46.51508 14.69892 35366 ft 448 kts 126°
2026-05-01 13:50 46.47269 14.76517 35349 ft 448 kts 126°
2026-05-01 13:50 46.43026 14.83134 35342 ft 448 kts 126°
2026-05-01 13:51 46.38777 14.89731 35336 ft 448 kts 126°
2026-05-01 13:51 46.34528 14.96306 35341 ft 448 kts 126°
2026-05-01 13:52 46.30258 15.02890 35368 ft 448 kts 126°
2026-05-01 13:52 46.25993 15.09445 35359 ft 447 kts 126°
2026-05-01 13:53 46.21728 15.15995 35354 ft 447 kts 126°
2026-05-01 13:53 46.15303 15.25844 35333 ft 447 kts 126°
2026-05-01 13:54 46.11041 15.32360 35360 ft 446 kts 126°
2026-05-01 13:54 46.06779 15.38861 35347 ft 446 kts 126°
2026-05-01 13:55 46.02514 15.45338 35336 ft 446 kts 126°
2026-05-01 13:55 45.98247 15.51802 35328 ft 445 kts 126°
2026-05-01 13:56 45.93950 15.58298 35322 ft 445 kts 126°
2026-05-01 13:56 45.89678 15.64742 35319 ft 445 kts 126°
2026-05-01 13:57 45.85402 15.71172 35324 ft 445 kts 126°
2026-05-01 13:57 45.81134 15.77591 35326 ft 445 kts 126°
2026-05-01 13:58 45.76861 15.84000 35327 ft 445 kts 126°
2026-05-01 13:58 45.72583 15.90392 35353 ft 445 kts 126°
2026-05-01 13:59 45.68300 15.96777 35347 ft 444 kts 126°
2026-05-01 13:59 45.64018 16.03153 35340 ft 444 kts 126°
2026-05-01 14:00 45.59733 16.09519 35336 ft 444 kts 126°
2026-05-01 14:00 45.55442 16.15871 35334 ft 445 kts 126°
2026-05-01 14:01 45.51145 16.22209 35364 ft 444 kts 126°
2026-05-01 14:01 45.46848 16.28540 35355 ft 444 kts 126°
2026-05-01 14:02 45.42549 16.34857 35347 ft 444 kts 126°
2026-05-01 14:02 45.38249 16.41162 35342 ft 444 kts 126°
2026-05-01 14:03 45.33954 16.47461 35386 ft 443 kts 126°
2026-05-01 14:03 45.29659 16.53736 35371 ft 442 kts 126°
2026-05-01 14:04 45.25361 16.59986 35361 ft 442 kts 126°
2026-05-01 14:04 45.21762 16.65207 35353 ft 442 kts 126°
2026-05-01 14:05 45.16738 16.72488 35345 ft 442 kts 126°
2026-05-01 14:05 45.12469 16.78666 35381 ft 442 kts 126°
2026-05-01 14:06 45.08140 16.84922 35361 ft 442 kts 126°
2026-05-01 14:06 45.03834 16.91131 35349 ft 442 kts 126°
2026-05-01 14:07 44.99523 16.97325 35334 ft 442 kts 126°
2026-05-01 14:08 44.93070 17.06562 35353 ft 443 kts 126°
2026-05-01 14:08 44.88739 17.12749 35336 ft 443 kts 126°
2026-05-01 14:09 44.84396 17.18932 35326 ft 444 kts 127°
2026-05-01 14:09 44.80021 17.25154 35322 ft 444 kts 127°
2026-05-01 14:10 44.75677 17.31334 35354 ft 444 kts 127°
2026-05-01 14:10 44.71317 17.37516 35340 ft 445 kts 127°
2026-05-01 14:11 44.66936 17.43684 35333 ft 446 kts 127°
2026-05-01 14:11 44.60365 17.52936 35328 ft 446 kts 128°
2026-05-01 14:12 44.55978 17.59101 35340 ft 447 kts 128°
2026-05-01 14:12 44.51569 17.65286 35312 ft 449 kts 128°
2026-05-01 14:13 44.47889 17.70429 35298 ft 450 kts 128°
2026-05-01 14:13 44.42695 17.77668 35293 ft 451 kts 128°
2026-05-01 14:14 44.38243 17.83869 35297 ft 452 kts 128°
2026-05-01 14:14 44.33782 17.90071 35300 ft 453 kts 129°
2026-05-01 14:15 44.29303 17.96278 35297 ft 455 kts 129°
2026-05-01 14:15 44.24805 18.02490 35276 ft 455 kts 129°
2026-05-01 14:16 44.20300 18.08703 35276 ft 455 kts 129°
2026-05-01 14:16 44.15781 18.14915 35294 ft 457 kts 130°
2026-05-01 14:17 44.11248 18.21132 35274 ft 457 kts 130°
2026-05-01 14:17 44.06708 18.27335 35263 ft 458 kts 131°
2026-05-01 14:18 44.02166 18.33538 35261 ft 458 kts 131°
2026-05-01 14:18 43.98366 18.38749 35261 ft 458 kts 131°
2026-05-01 14:19 43.93080 18.45959 35258 ft 459 kts 131°
2026-05-01 14:19 43.88513 18.52131 35258 ft 459 kts 131°
2026-05-01 14:20 43.81665 18.61407 35255 ft 459 kts 131°
2026-05-01 14:21 43.77063 18.67621 35266 ft 460 kts 132°
2026-05-01 14:21 43.72477 18.73792 35254 ft 460 kts 132°
2026-05-01 14:22 43.65593 18.83036 35244 ft 460 kts 132°
2026-05-01 14:22 43.61000 18.89204 35241 ft 461 kts 132°
2026-05-01 14:23 43.57169 18.94330 35248 ft 462 kts 133°
2026-05-01 14:23 43.52540 19.00493 35235 ft 463 kts 133°
2026-05-01 14:24 43.47894 19.06662 35233 ft 464 kts 133°
2026-05-01 14:24 43.43245 19.12830 35228 ft 464 kts 133°
2026-05-01 14:25 43.38589 19.19000 35252 ft 465 kts 133°
2026-05-01 14:25 43.33897 19.25206 35232 ft 465 kts 134°
2026-05-01 14:26 43.26872 19.34472 35225 ft 468 kts 134°
2026-05-01 14:27 43.22155 19.40651 35227 ft 469 kts 135°
2026-05-01 14:27 43.17427 19.46847 35243 ft 471 kts 134°
2026-05-01 14:28 43.10323 19.56149 35251 ft 471 kts 134°
2026-05-01 14:28 43.05583 19.62335 35252 ft 471 kts 134°
2026-05-01 14:29 43.00838 19.68509 35247 ft 471 kts 134°
2026-05-01 14:30 42.91333 19.80814 35254 ft 470 kts 135°
2026-05-01 14:31 42.84216 19.90026 35242 ft 470 kts 135°
2026-05-01 14:31 42.79418 19.96196 35224 ft 472 kts 135°
2026-05-01 14:32 42.74672 20.02377 35226 ft 472 kts 131°
2026-05-01 14:32 42.70493 20.09231 35238 ft 471 kts 127°
2026-05-01 14:33 42.66336 20.16114 35244 ft 472 kts 128°
2026-05-01 14:33 42.62164 20.22988 35246 ft 471 kts 128°
2026-05-01 14:34 42.57996 20.29840 35238 ft 471 kts 129°
2026-05-01 14:34 42.53810 20.36685 35225 ft 472 kts 129°
2026-05-01 14:35 42.49612 20.43539 35226 ft 473 kts 129°
2026-05-01 14:35 42.45413 20.50390 35237 ft 473 kts 129°
2026-05-01 14:36 42.41204 20.57249 35226 ft 474 kts 129°
2026-05-01 14:36 42.36981 20.64111 35238 ft 474 kts 129°
2026-05-01 14:37 42.32752 20.70958 35239 ft 475 kts 129°
2026-05-01 14:37 42.28485 20.77855 35228 ft 475 kts 130°
2026-05-01 14:38 42.24234 20.84694 35240 ft 476 kts 130°
2026-05-01 14:38 42.19981 20.91534 35246 ft 476 kts 130°
2026-05-01 14:39 42.15732 20.98372 35242 ft 476 kts 130°
2026-05-01 14:39 42.11462 21.05183 35242 ft 475 kts 133°
2026-05-01 14:40 42.06702 21.11344 35241 ft 475 kts 137°
2026-05-01 14:40 42.01896 21.17445 35233 ft 476 kts 138°
2026-05-01 14:41 41.97079 21.23552 35222 ft 476 kts 138°
2026-05-01 14:41 41.92254 21.29658 35222 ft 477 kts 138°
2026-05-01 14:42 41.87418 21.35749 35218 ft 477 kts 138°
2026-05-01 14:42 41.82574 21.41840 35220 ft 477 kts 138°
2026-05-01 14:43 41.77736 21.47929 35223 ft 477 kts 138°
2026-05-01 14:43 41.72886 21.54017 35200 ft 478 kts 139°
2026-05-01 14:44 41.68026 21.60105 35209 ft 479 kts 139°
2026-05-01 14:44 41.60704 21.69222 35205 ft 480 kts 139°
2026-05-01 14:45 41.53374 21.78326 35204 ft 480 kts 139°
2026-05-01 14:46 41.48491 21.84399 35192 ft 480 kts 140°
2026-05-01 14:46 41.41142 21.93490 35195 ft 481 kts 140°
2026-05-01 14:47 41.36225 21.99537 35198 ft 481 kts 140°
2026-05-01 14:48 41.28852 22.08607 35200 ft 481 kts 140°
2026-05-01 14:48 41.20900 22.16529 35185 ft 475 kts 153°
2026-05-01 14:49 41.09595 22.25691 35196 ft 476 kts 153°
2026-05-01 14:50 40.98264 22.34854 35196 ft 477 kts 153°
2026-05-01 14:51 40.89752 22.41726 35203 ft 478 kts 153°
2026-05-01 14:52 40.81212 22.48590 35208 ft 479 kts 154°
2026-05-01 14:53 40.72613 22.55478 35203 ft 481 kts 154°
2026-05-01 14:53 40.66888 22.60054 35217 ft 482 kts 154°
2026-05-01 14:54 40.61152 22.64629 35222 ft 482 kts 154°
2026-05-01 14:54 40.55364 22.69232 35228 ft 483 kts 154°
2026-05-01 14:55 40.49611 22.73802 35236 ft 483 kts 154°
2026-05-01 14:55 40.44791 22.77622 35237 ft 483 kts 154°
2026-05-01 14:56 40.39072 22.82153 35234 ft 483 kts 154°
2026-05-01 14:56 40.33268 22.86742 35236 ft 484 kts 154°
2026-05-01 14:57 40.27496 22.91286 35212 ft 484 kts 155°
2026-05-01 14:57 40.18832 22.98093 35206 ft 484 kts 155°
2026-05-01 14:58 40.13049 23.02624 35203 ft 485 kts 155°
2026-05-01 14:58 40.07267 23.07150 35197 ft 485 kts 155°
2026-05-01 14:59 40.01481 23.11675 35171 ft 485 kts 155°
2026-05-01 14:59 39.95693 23.16182 35181 ft 485 kts 156°
2026-05-01 15:00 39.87000 23.22936 35180 ft 485 kts 155°
2026-05-01 15:01 39.81203 23.27440 35187 ft 485 kts 155°
2026-05-01 15:01 39.75399 23.31931 35159 ft 485 kts 156°
2026-05-01 15:02 39.69590 23.36417 35171 ft 486 kts 156°
2026-05-01 15:02 39.63774 23.40915 35175 ft 487 kts 156°
2026-05-01 15:03 39.57950 23.45406 35180 ft 487 kts 157°
2026-05-01 15:03 39.52113 23.49882 35158 ft 488 kts 158°
2026-05-01 15:04 39.46248 23.54369 35170 ft 490 kts 158°
2026-05-01 15:04 39.40373 23.58852 35178 ft 490 kts 158°
2026-05-01 15:05 39.34463 23.63369 35184 ft 491 kts 158°
2026-05-01 15:05 39.28582 23.67854 35165 ft 491 kts 158°
2026-05-01 15:06 39.22738 23.72303 35174 ft 491 kts 158°
2026-05-01 15:06 39.16848 23.76775 35159 ft 491 kts 158°
2026-05-01 15:07 39.10953 23.81234 35167 ft 491 kts 158°
2026-05-01 15:07 39.05058 23.85685 35175 ft 492 kts 158°
2026-05-01 15:08 38.99158 23.90140 35152 ft 492 kts 159°
2026-05-01 15:08 38.93216 23.94631 35163 ft 492 kts 159°
2026-05-01 15:09 38.87309 23.99068 35171 ft 492 kts 159°
2026-05-01 15:09 38.81443 24.03459 35163 ft 492 kts 159°
2026-05-01 15:10 38.75533 24.07871 35120 ft 492 kts 160°
2026-05-01 15:10 38.69612 24.12291 34527 ft 493 kts 160°
2026-05-01 15:10 38.66653 24.14505 34176 ft 493 kts 160°
2026-05-01 15:11 38.63692 24.16716 33734 ft 494 kts 160°
2026-05-01 15:11 38.57748 24.21138 32426 ft 494 kts 160°
2026-05-01 15:11 38.54790 24.23339 31846 ft 490 kts 160°
2026-05-01 15:12 38.51863 24.25519 31264 ft 485 kts 161°
2026-05-01 15:12 38.46078 24.29823 30174 ft 478 kts 161°
2026-05-01 15:12 38.43217 24.31944 29582 ft 474 kts 161°
2026-05-01 15:13 38.34838 24.38259 27993 ft 459 kts 160°
2026-05-01 15:14 38.29413 24.42390 26627 ft 456 kts 159°
2026-05-01 15:14 38.26659 24.44458 25674 ft 461 kts 158°
2026-05-01 15:14 38.21160 24.48583 24448 ft 455 kts 158°
2026-05-01 15:15 38.15781 24.52643 23337 ft 444 kts 157°
2026-05-01 15:15 38.10522 24.56596 22046 ft 435 kts 156°
2026-05-01 15:16 38.05363 24.60457 20904 ft 426 kts 156°
2026-05-01 15:16 38.00294 24.64234 19812 ft 419 kts 156°
2026-05-01 15:17 37.95308 24.67951 18779 ft 412 kts 155°
2026-05-01 15:18 37.87957 24.73449 17166 ft 402 kts 155°
2026-05-01 15:18 37.85559 24.75240 16662 ft 398 kts 154°
2026-05-01 15:19 37.78476 24.80486 15203 ft 388 kts 154°
2026-05-01 15:19 37.73853 24.83908 14332 ft 380 kts 154°
2026-05-01 15:19 37.71592 24.85588 14000 ft 374 kts 154°
2026-05-01 15:20 37.67195 24.88856 13262 ft 357 kts 153°
2026-05-01 15:20 37.65084 24.90421 12887 ft 346 kts 153°
2026-05-01 15:20 37.63034 24.91938 12523 ft 337 kts 154°
2026-05-01 15:21 37.61036 24.93411 12170 ft 329 kts 154°
2026-05-01 15:21 37.59063 24.94864 11809 ft 327 kts 154°
2026-05-01 15:21 37.57113 24.96329 11460 ft 327 kts 149°
2026-05-01 15:21 37.55505 24.98343 11143 ft 329 kts 124°
2026-05-01 15:22 37.53710 25.03512 10907 ft 318 kts 112°
2026-05-01 15:22 37.52891 25.06099 10533 ft 318 kts 112°
2026-05-01 15:22 37.52076 25.08680 10197 ft 316 kts 112°
2026-05-01 15:23 37.51267 25.11253 9861 ft 314 kts 111°
2026-05-01 15:23 37.50470 25.13810 9523 ft 311 kts 111°
2026-05-01 15:23 37.49690 25.16325 9273 ft 305 kts 111°
2026-05-01 15:23 37.48926 25.18786 8956 ft 298 kts 111°
2026-05-01 15:24 37.48179 25.21186 8645 ft 291 kts 111°
2026-05-01 15:24 37.47450 25.23530 8326 ft 284 kts 110°
2026-05-01 15:24 37.46739 25.25810 8024 ft 277 kts 110°
2026-05-01 15:24 37.46035 25.28062 7736 ft 275 kts 110°
2026-05-01 15:25 37.45336 25.30285 7212 ft 273 kts 109°
2026-05-01 15:25 37.44643 25.32484 6732 ft 266 kts 110°
2026-05-01 15:25 37.43792 25.34535 6263 ft 264 kts 123°
2026-05-01 15:25 37.42608 25.36280 5741 ft 261 kts 130°
2026-05-01 15:26 37.41335 25.37898 5235 ft 259 kts 132°
2026-05-01 15:26 37.40081 25.39500 4854 ft 253 kts 131°
2026-05-01 15:26 37.38863 25.41059 4657 ft 247 kts 130°
2026-05-01 15:26 37.37675 25.42583 4474 ft 241 kts 130°
2026-05-01 15:27 37.36513 25.44071 4292 ft 236 kts 130°
2026-05-01 15:27 37.35379 25.45524 4110 ft 230 kts 129°
2026-05-01 15:27 37.34267 25.46946 3934 ft 226 kts 130°
2026-05-01 15:28 37.31411 25.48229 3580 ft 229 kts 191°
2026-05-01 15:28 37.29982 25.47418 3398 ft 227 kts 224°
2026-05-01 15:28 37.29062 25.45853 3229 ft 222 kts 253°
2026-05-01 15:29 37.28677 25.42213 2852 ft 200 kts 304°
2026-05-01 15:29 37.29560 25.41025 2718 ft 179 kts 337°
2026-05-01 15:29 37.31779 25.40013 2351 ft 166 kts 344°
2026-05-01 15:30 37.33590 25.39203 2047 ft 165 kts 344°
2026-05-01 15:31 37.37441 25.37474 1536 ft 124 kts 349°
2026-05-01 15:31 37.39077 25.36765 1274 ft 124 kts 344°
2026-05-01 15:32 37.40718 25.36061 935 ft 125 kts 342°
2026-05-01 15:32 37.42356 25.35332 566 ft 127 kts 342°
2026-05-01 15:33 37.43946 25.34632 411 ft 47 kts 340°
2026-05-01 15:34 37.44292 25.34494 405 ft 8 kts 148°